Regional Weather Roundup
Issued by NWS

Home | Current Version | Previous Version | Text Only | Print | Product List | Glossary Off
Versions: 1 2 3 4 5 6 7 8 9 10 11 12 13 14 15 16 17 18 19 20 21 22 23 24 25 26 27 28 29 30 31 32 33 34 35 36 37 38 39 40 41 42 43 44 45 46 47 48 49 50

738
ASUS43 KTOP 132359
RWRKS

WEATHER ROUNDUP FOR KANSAS
NATIONAL WEATHER SERVICE GOODLAND KS
600 PM CST SAT FEB 13 2016

NOTE:  "FAIR" INDICATES FEW OR NO CLOUDS BELOW 12,000 FEET WITH NO
SIGNIFICANT WEATHER AND/OR OBSTRUCTIONS TO VISIBILITY.

KSZ001>006-013>018-027>032-041>047-140100-
NORTHWEST KANSAS

CITY           SKY/WX    TMP DP  RH WIND       PRES   REMARKS
GOODLAND       CLOUDY    31  29  92 S12       29.97S FOG     WCI  22
6HR MIN TEMP:  27; 6HR MAX TEMP:  32;

HAYS           CLOUDY    36  12  38 SE16      30.08F WCI  26
HILL CITY      CLOUDY    33  20  58 SE8       30.07F
6HR MIN TEMP:  27; 6HR MAX TEMP:  37;

RUSSELL        CLOUDY    33  17  51 SE13      30.09F WCI  24
6HR MIN TEMP:  30; 6HR MAX TEMP:  36;

$$

KSZ061>065-074>080-084>089-140100-
SOUTHWEST KANSAS

CITY           SKY/WX    TMP DP  RH WIND       PRES   REMARKS
DODGE CITY     CLOUDY    42  24  49 E12       30.00F
6HR MIN TEMP:  33; 6HR MAX TEMP:  45;

ELKHART          N/A     73  27  18 S10         N/A
GARDEN CITY    CLOUDY    48  29  47 E12       29.96R
6HR MIN TEMP:  32; 6HR MAX TEMP:  53;

GREAT BEND     CLOUDY    37  16  41 SE10      30.10F WCI  30
LIBERAL        CLEAR     61  34  36 SE16      29.90S
$$

KSZ066>073-081>083-090>101-140100-
SOUTHEAST KANSAS

CITY           SKY/WX    TMP DP  RH WIND       PRES   REMARKS
CHANUTE        CLOUDY    34   6  31 E13G20    30.21F WCI  25
6HR MIN TEMP:  32; 6HR MAX TEMP:  40;

COFFEYVILLE    CLOUDY    42  12  29 E8        30.19F
6HR MIN TEMP:  36; 6HR MAX TEMP:  46;

HUTCHINSON     CLOUDY    40  13  33 SE8       30.15S
6HR MIN TEMP:  33; 6HR MAX TEMP:  42;

MEDICINE LODGE   N/A     45  27  49 SE8       30.08F
NEWTON         CLOUDY    36   9  32 E8        30.18R
PARSONS        CLOUDY    41   9  26 VRB3      30.20F
6HR MIN TEMP:  34; 6HR MAX TEMP:  44;

WICHITA INTL   CLOUDY    41  11  29 SE14      30.14F
6HR MIN TEMP:  35; 6HR MAX TEMP:  45;

WICHITA JABRA  CLOUDY    39  11  31 E9        30.15F
6HR MIN TEMP:  33; 6HR MAX TEMP:  43;

WINFIELD       CLOUDY    45  18  34 SE8       30.15S
6HR MIN TEMP:  37; 6HR MAX TEMP:  47;

$$

KSZ007>012-019>026-033>040-048>060-102>105-140100-
NORTHEAST KANSAS

CITY           SKY/WX    TMP DP  RH WIND       PRES   REMARKS
CONCORDIA      CLOUDY    26   5  40 E8        30.18F
6HR MIN TEMP:  23; 6HR MAX TEMP:  31;

EMPORIA        CLOUDY    28   7  41 E13       30.22R WCI  17
6HR MIN TEMP:  28; 6HR MAX TEMP:  34;

LAWRENCE       CLOUDY    23   3  42 E16       30.29F WCI  10
6HR MIN TEMP:  21; 6HR MAX TEMP:  24;

MANHATTAN      CLOUDY    27   5  39 E9        30.25R
6HR MIN TEMP:  25; 6HR MAX TEMP:  31;

OLATHE IND     PTCLDY    21   2  43 E15G22    30.28F WCI   8
6HR MIN TEMP:  20; 6HR MAX TEMP:  22;

OLATHE EXE     CLOUDY    21   1  41 E14       30.28F WCI   8
6HR MIN TEMP:  19; 6HR MAX TEMP:  22;

SALINA         PTCLDY    36   5  27 E7        30.18F
6HR MIN TEMP:  30; 6HR MAX TEMP:  39;

TOPEKA BILLARD CLOUDY    24   1  36 E13       30.28F WCI  12
6HR MIN TEMP:  24; 6HR MAX TEMP:  26;

TOPEKA FORBES  CLOUDY    24   4  42 E10       30.25F WCI  14
6HR MIN TEMP:  24; 6HR MAX TEMP:  27;

$$




USA.gov is the U.S. government's official web portal to all federal, state and local government web resources and services.